Regional Weather Roundup
Issued by NWS

Home | Current Version | Previous Version | Text Only | Print | Product List | Glossary Off
Versions: 1 2 3 4 5 6 7 8 9 10 11 12 13 14 15 16 17 18 19 20 21 22 23 24 25 26 27 28 29 30 31 32 33 34 35 36 37 38 39 40 41 42 43 44 45 46 47 48 49 50

000
ASUS43 KTOP 281559
RWRKS

WEATHER ROUNDUP FOR KANSAS
NATIONAL WEATHER SERVICE GOODLAND KS
1100 AM CDT WED SEP 28 2016

NOTE:  "FAIR" INDICATES FEW OR NO CLOUDS BELOW 12,000 FEET WITH NO
SIGNIFICANT WEATHER AND/OR OBSTRUCTIONS TO VISIBILITY.

KSZ001>006-013>018-027>032-041>047-281700-
NORTHWEST KANSAS

CITY           SKY/WX    TMP DP  RH WIND       PRES   REMARKS
GOODLAND       SUNNY     72  42  34 N5        30.26R
HAYS           SUNNY     70  43  37 NE12      30.19R
HILL CITY      SUNNY     68  45  43 NE6       30.22R
RUSSELL        SUNNY     68  44  42 NE12      30.17R
$$

KSZ061>065-074>080-084>089-281700-
SOUTHWEST KANSAS

CITY           SKY/WX    TMP DP  RH WIND       PRES   REMARKS
DODGE CITY     SUNNY     76  45  33 NE14      30.18R
ELKHART          N/A     74  41  30 N7          N/A
GARDEN CITY    SUNNY     79  40  24 NE14      30.18R
GREAT BEND     SUNNY     70  46  43 NE14      30.17R
LIBERAL        SUNNY     75  45  33 E10       30.20R
$$

KSZ066>073-081>083-090>101-281700-
SOUTHEAST KANSAS

CITY           SKY/WX    TMP DP  RH WIND       PRES   REMARKS
CHANUTE        SUNNY     71  44  37 N14       30.05R
COFFEYVILLE    SUNNY     74  52  46 N15G25    30.04R
HUTCHINSON     SUNNY     69  46  43 N9G18     30.13R
MEDICINE LODGE   N/A     74  50  42 NE16      30.11R
NEWTON         SUNNY     68  45  43 MISG      30.12R
PARSONS        SUNNY     73  49  42 N15G23    30.05R
WICHITA INTL   SUNNY     72  51  47 N16       30.09R
WICHITA JABRA  LGT RAIN  70  51  51 N15       30.10R
WICHITA MCCONL SUNNY     70  51  50 N16       30.10R
WINFIELD       SUNNY     73  53  49 N17       30.08R
$$

KSZ007>012-019>026-033>040-048>060-102>105-281700-
NORTHEAST KANSAS

CITY           SKY/WX    TMP DP  RH WIND       PRES   REMARKS
CONCORDIA      SUNNY     65  41  41 N12       30.17R
EMPORIA        SUNNY     66  44  45 N15G24    30.09R
LAWRENCE       SUNNY     63  46  54 N18       30.09R
MANHATTAN      SUNNY     65  44  46 NE13      30.13R
OLATHE IND     SUNNY     62  46  55 N18       30.08R
OLATHE EXE     SUNNY     61  45  55 N18       30.07R
SALINA         SUNNY     68  40  35 N16       30.15R
TOPEKA BILLARD SUNNY     62  47  57 N17G24    30.10R
TOPEKA FORBES  SUNNY     65  47  52 N16G24    30.10R
$$




USA.gov is the U.S. government's official web portal to all federal, state and local government web resources and services.